PERSEUS-M1

Last updated on Tue Jul 01 2025 00:03:44 GMT+0000 (Coordinated Universal Time)

1 40039U 14033AF 25181.32228188 .00001037 00000+0 10328-3 0 9995 2 40039 97.9295 116.0208 0012844 30.7163 329.4805 14.93783227598072
UTC large
Height (km)
Speed (km/s)
/
Latitude / Longitude
Inclination (degrees)
Orbital Period (minutes)
Azimuth
Elevation
Range (km)
Doppler Factor

Next 0 passes for location: London (51.5072 / 0.1276)

Sorry there are no passes over London.